Meath Environmental Platform

Observations for Trim Market St

Time AQI Temp °C Hum % Pres Pa CO μg/m³ H₂S μg/m³ NO μg/m³ NO₂ μg/m³ O₃ μg/m³ SO₂ μg/m³ PM1 μg/m³ PM2.5 μg/m³ PM10 μg/m³
Wednesday 26 August 2026
02:58 2 16.6 85 2,147,483,647 0.32 0 1.55 16.96 25.51 0 5.7 6.51 10.21
02:57 2 16.6 85 2,147,483,647 0.32 0 1.41 15.5 30.34 0 2.85 5.59 10.21
02:56 2 16.7 85 2,147,483,647 0.3 0 1.45 21.51 33.78 0 5.7 6.05 10.75
02:55 2 16.6 85 2,147,483,647 0.3 0 1.42 16.34 33.86 0 5.7 6.98 13.43
02:54 2 16.7 85 2,147,483,647 0.3 0 1.43 14.86 34.39 0 5.7 6.98 12.89
02:53 2 16.6 85 2,147,483,647 0.31 0 1.52 16.03 31.67 0 4.28 5.59 10.21
02:52 2 16.7 85 2,147,483,647 0.3 0 1.37 14.45 39.84 0 6.41 6.52 10.75
02:50 2 16.6 85 2,147,483,647 0.3 0 1.24 16.03 30.02 0 5.7 7.91 13.97
02:49 2 16.6 85 2,147,483,647 0.3 0 1.24 16.35 37.27 0 4.99 5.59 9.14
02:48 2 16.7 85 2,147,483,647 0.29 0 1.24 14.72 32.39 0 5.7 6.27 9.68
02:46 2 16.6 85 2,147,483,647 0.3 0 1.4 19.28 25.96 0 6.41 6.98 11.82
02:45 2 16.6 85 2,147,483,647 0.3 0 1.45 28.16 27.28 0 7.13 7.45 11.82
02:44 2 16.6 85 2,147,483,647 0.3 0 1.76 14.59 33.27 0 4.28 5.12 8.61
02:42 2 16.6 85 2,147,483,647 0.29 0 1.61 16.68 31.15 0 6.41 6.98 10.75
02:41 2 16.6 85 2,147,483,647 0.29 0 1.54 14.47 35.27 0 4.99 5.12 9.68
02:40 2 16.6 85 2,147,483,647 0.3 0 1.48 14.27 36.55 0 5.7 6.52 11.29
02:38 2 16.6 85 2,147,483,647 0.3 0 1.32 15.18 36.11 0 4.99 6.06 10.22
02:33 2 16.6 85 2,147,483,647 0.3 0 1.7 14.87 34.52 0 4.99 6.52 10.22
02:32 2 16.6 85 2,147,483,647 0.29 0 1.57 15.19 39.66 0 4.28 5.59 9.14
02:29 2 16.6 85 2,147,483,647 0.29 0 1.82 18.64 37.1 0 5.7 6.06 9.68